Find Starlink 3896

NORAD ID: 52456 Int'l Des: 2022-049 Owner: SPXS Country: US Constellation: starlink operational
LEOCIRCULAR

当前视图

正在加载3D地球...

About Starlink 3896

Starlink 3896 (NORAD 52456) is a starlink constellation satellite (v1.5) launched May 6, 2022 by SPXS of US. It operates in LEO, CIRCULAR orbit with a mass of 297.00 kg.

即将过境

Passes for default location (London). Set your location on the main map for personalized predictions.

高度历史

Loading altitude history...

两行轨道根数

1 52456U 22049F 26262.49214897 -.00000325 00000-0 12893-5 0 9990
2 52456 53.1608 272.5894 0001380 82.7497 277.3661 15.31698835241450
Epoch: Sep 19, 2026 • Age: 31 hours

当前状态

高度 489.9 km
远地点 / 近地点 N/A
速度 7.62 km/s
星下点 -52.44°S, 117.93°W
发射日期 May 6, 2022
运行时间 4.3 years
类型 internet

技术详情

分类 Payload
质量 297.00 kg
干质量 220.00 kg
长度 0.20 m
跨度 9.00 m
形状 ? Box + pan
制造商 SPXS
平台类型 Starlink
阶段状态 In Orbit
所有者/国家 SPXS/US

Most Searched